User: anonymous   Login
Location: Unspecified
(0.0000°N, 0.0000°E)
Time: 12:37:54
(UTC+00:00)
Language:

Tsikada - Orbit

View from above orbital plane
View from above orbital plane
View from above satellite
View from above satellite

Ground track
Ground track

The orbit data is extracted from the following two-line orbital elements,

1 23463U 95002A   18171.94766663 +.00000030 +00000-0 +16828-4 0  9991
2 23463 082.9269 013.4979 0038126 325.7670 143.6504 13.72486712172137
Epoch (UTC): 20 June 2018 22:44:38
Eccentricity: 0.0038126
inclination: 82.9269°
perigee height: 962 km
apogee height: 1019 km
right ascension of ascending node: 13.4979°
argument of perigee: 325.7670°
revolutions per day: 13.72486712
mean anomaly at epoch: 143.6504°
orbit number at epoch: 17213

The dashed part of the orbit path shows where the satellite is in the earth's shadow,  

DLR